GW2216 Weather Reports


Display with metric or nautical units.
time (UTC)temp
F
wind
direction
speed
MPH
gust
MPH
rain 1hr
in
rain 24hr
in
rain mn
in
humidity
%
barometer
mb
20260506143032 55 22 2.0 4.0 0.00 0.00 0.00 71 1020.9
20260506141532 54 0 0.0 2.0 0.00 0.00 0.00 71 1020.5
20260506140030 52 0 0.0 2.0 0.00 0.00 0.00 74 1020.3
20260506134532 49 243 1.0 2.0 0.00 0.00 0.00 82 1020.3
20260506133032 45 0 0.0 4.0 0.00 0.00 0.00 85 1020.1
20260506131537 44 215 2.0 4.0 0.00 0.00 0.00 85 1019.8
20260506130032 44 218 3.0 5.0 0.00 0.00 0.00 84 1019.6
20260506124530 44 234 2.0 4.0 0.00 0.00 0.00 84 1019.4
20260506123033 44 215 2.0 4.0 0.00 0.00 0.00 83 1019.2
20260506121530 45 232 1.0 4.0 0.00 0.00 0.00 81 1019.0
20260506120034 45 0 0.0 0.0 0.00 0.00 0.00 81 1018.9
20260506114532 47 0 0.0 3.0 0.00 0.00 0.00 79 1018.8
20260506113039 49 242 1.0 4.0 0.00 0.00 0.00 75 1018.5
20260506111532 49 234 2.0 5.0 0.00 0.00 0.00 75 1018.3
20260506110030 49 215 3.0 6.0 0.00 0.00 0.00 75 1017.9
20260506104534 49 210 4.0 7.0 0.00 0.01 0.00 75 1017.8
20260506103031 49 207 4.0 7.0 0.00 0.01 0.00 74 1017.6
20260506101532 49 237 4.0 7.0 0.00 0.01 0.00 73 1017.5
20260506100034 50 238 4.0 7.0 0.00 0.01 0.00 72 1017.3
20260506094530 50 240 5.0 9.0 0.00 0.01 0.00 72 1017.0
20260506093031 51 223 5.0 8.0 0.00 0.01 0.00 72 1017.0
20260506091530 51 222 5.0 8.0 0.00 0.01 0.00 71 1016.9
20260506090033 52 224 3.0 8.0 0.00 0.01 0.00 69 1016.9
20260506084528 52 202 5.0 8.0 0.00 0.01 0.00 70 1016.8
20260506083031 52 229 5.0 10.0 0.00 0.01 0.00 70 1016.8
20260506081532 52 227 6.0 10.0 0.00 0.01 0.00 70 1016.7
20260506073031 53 261 5.0 9.0 0.00 0.01 0.00 67 1016.4
20260506071528 54 229 5.0 10.0 0.00 0.01 0.00 65 1016.2
20260506061532 54 227 4.0 8.0 0.00 0.03 0.01 65 1015.8
20260506044530 57 220 3.0 6.0 0.00 0.04 0.01 61 1014.4
20260506043031 57 234 2.0 4.0 0.00 0.04 0.01 61 1014.1
20260506041533 58 184 1.0 7.0 0.00 0.04 0.01 56 1013.8
20260506040030 58 150 1.0 7.0 0.00 0.04 0.01 58 1013.4
20260506034535 58 211 6.0 9.0 0.00 0.15 0.01 57 1013.2
20260506033029 58 172 4.0 10.0 0.00 0.15 0.01 58 1013.0
20260506031532 59 198 6.0 10.0 0.00 0.15 0.01 57 1012.9
20260506030039 59 247 3.0 11.0 0.00 0.15 0.01 56 1012.7
20260506024553 59 228 4.0 10.0 0.00 0.15 0.01 55 1012.5
20260506023030 61 215 6.0 11.0 0.00 0.15 0.01 51 1012.4
20260506021531 63 217 4.0 8.0 0.00 0.15 0.01 48 1012.3
20260506020031 65 290 1.0 8.0 0.00 0.15 0.01 41 1012.1
20260506014531 67 326 3.0 8.0 0.00 0.30 0.01 39 1012.1
20260506013040 68 316 2.0 9.0 0.00 0.30 0.01 38 1012.0
20260506011533 68 331 5.0 10.0 0.00 0.30 0.01 37 1012.1
20260506010032 68 303 4.0 11.0 0.00 0.30 0.01 37 1012.0
20260506004532 69 36 3.0 12.0 0.00 0.42 0.01 34 1012.1
20260506003035 69 5 3.0 9.0 0.00 0.42 0.01 37 1012.0
20260506001529 67 352 6.0 11.0 0.00 0.42 0.01 38 1012.1
20260506000029 70 5 3.0 12.0 0.00 0.42 0.01 37 1012.1
20260505234536 70 71 5.0 12.0 0.00 0.42 0.01 34 1012.0
20260505233030 66 352 3.0 9.0 0.00 0.42 0.01 40 1012.0
20260505231532 67 301 4.0 14.0 0.00 0.42 0.01 40 1012.2
20260505230049 65 53 1.0 6.0 0.00 0.42 0.01 40 1012.4
20260505224532 66 122 2.0 8.0 0.00 0.42 0.01 44 1012.6
20260505223029 66 236 1.0 5.0 0.00 0.42 0.01 41 1012.8
20260505221535 67 0 2.0 11.0 0.00 0.42 0.01 47 1012.9
20260505220033 66 309 2.0 7.0 0.00 0.42 0.01 49 1013.2
20260505214531 65 226 5.0 10.0 0.00 0.42 0.01 46 1013.3
20260505213047 66 162 1.0 8.0 0.00 0.42 0.01 44 1013.4
20260505211531 65 317 1.0 8.0 0.00 0.42 0.01 50 1013.6
20260505210032 63 63 3.0 10.0 0.00 0.42 0.01 49 1013.8
20260505204531 63 43 2.0 8.0 0.00 0.43 0.01 51 1013.8
20260505203041 61 0 0.0 9.0 0.00 0.43 0.01 52 1013.9
20260505201529 61 0 3.0 9.0 0.00 0.43 0.01 55 1014.0
20260505200034 62 0 1.0 8.0 0.00 0.43 0.01 57 1014.0
20260505194530 59 22 3.0 9.0 0.00 0.43 0.01 67 1014.1
20260505193031 60 57 3.0 9.0 0.00 0.43 0.01 68 1014.0
20260505191532 57 22 4.0 10.0 0.00 0.43 0.01 71 1014.0
20260505190030 58 313 1.0 7.0 0.00 0.43 0.01 72 1014.0
20260505184529 58 42 0.0 7.0 0.00 0.44 0.01 76 1013.9
20260505183029 56 0 2.0 7.0 0.00 0.44 0.01 78 1014.0
20260505181531 54 77 2.0 8.0 0.00 0.44 0.01 77 1014.1
20260505180033 52 0 0.0 5.0 0.00 0.44 0.01 79 1014.0
20260505174532 52 0 0.0 4.0 0.00 0.44 0.01 79 1013.8
20260505173040 51 119 0.0 3.0 0.00 0.44 0.01 84 1013.7
20260505171531 49 196 0.0 4.0 0.00 0.44 0.01 85 1013.6
20260505170033 49 174 1.0 3.0 0.00 0.44 0.01 86 1013.6
20260505164547 48 109 0.0 4.0 0.00 0.44 0.01 89 1013.5
20260505163031 47 159 0.0 4.0 0.00 0.44 0.01 89 1013.4
20260505161530 47 106 0.0 4.0 0.00 0.44 0.01 90 1013.2
20260505153047 45 142 0.0 4.0 0.00 0.44 0.01 90 1012.9
20260505151600 45 125 0.0 3.0 0.00 0.44 0.01 90 1012.7